Location: Cisewo
(53.3833°N, 14.9000°E)
Time: 13:54:15
(UTC+00:00)

NOSS 2-2 (D) - Pass Details

Date: 18 April 2021
Orbit: 456 x 1751 km, 63.3° (Epoch: 02 May)

Event Time Altitude Azimuth Distance (km) Brightness Sun altitude
Rises 23:28:14 0° 311° (NW) 3,012 7.5 -25.2°
Reaches altitude 10° 23:30:15 10° 308° (NW) 2,233 6.7 -25.1°
Maximum altitude 23:35:20 66° 228° (SW) 988 4.3 -25.0°
Enters shadow 23:36:02 61° 191° (SSW) 1,054 4.3 -25.0°
